Regional Weather Roundup
Issued by NWS Newport/Morehead, NC

Current Version | Previous Version | Text Only | Print | Product List | Glossary On
Versions: 1 2 3 4 5 6 7 8 9 10 11 12 13 14 15 16 17 18 19 20 21 22 23 24 25 26 27 28 29 30 31 32 33 34 35 36 37 38 39 40 41 42 43 44 45 46 47 48 49 50
644
ASUS42 KMHX 192325
RWRMHX
WEATHER ROUNDUP FOR EASTERN NORTH CAROLINA
NATIONAL WEATHER SERVICE NEWPORT/MOREHEAD CITY NC
600 PM EST MON FEB 19 2018

NOTE: "FAIR" INDICATES FEW OR NO CLOUDS BELOW 12,000 FEET
WITH NO SIGNIFICANT WEATHER AND/OR OBSTRUCTIONS TO VISIBILITY

NCZ015>017-031-032-045>047-102-103-200000-
NORTH COAST

CITY           SKY/WX    TMP DP  RH WIND       PRES   REMARKS
EDENTON        CLOUDY    65  62  90 CALM      30.39S
ELIZABETH CITY CLOUDY    64  62  93 S6        30.39R
KITTY HAWK     CLOUDY   N/A N/A N/A S5        30.40S
MANTEO         CLOUDY    58  56  93 S7        30.42S

$$

NCZ045>047-081-094-103-104-200000-
CENTRAL COAST

CITY           SKY/WX    TMP DP  RH WIND       PRES   REMARKS
FRISCO         CLOUDY    63  61  93 S8        30.42R

$$

NCZ095-097-098-100-101-200000-
SOUTHERN COAST

CITY           SKY/WX    TMP DP  RH WIND       PRES   REMARKS
BEAUFORT       FAIR      67  63  87 S8        30.40R
CEDAR ISLAND   NOT AVBL
JACKSONVILLE   CLOUDY    69  65  86 S8        30.38S
PINEY ISLAND   NOT AVBL
WILMINGTON     LGT RAIN  68  66  93 SW6       30.39R FOG


$$

NCZ011>013-027>030-043-044-078>080-089-090>093-098-200000-
COASTAL PLAIN

CITY           SKY/WX    TMP DP  RH WIND       PRES   REMARKS
AHOSKIE        CLOUDY    50  50 100 CALM      30.40S FOG
CLINTON        CLOUDY    61  60  97 N3        30.39R
ELIZABETHTOWN  NOT AVBL
GOLDSBORO      MOCLDY    56  53  90 NW3       30.37S
GREENVILLE     FAIR      57  54  88 CALM      30.40R
HAVELOCK       CLOUDY    71  66  84 S6        30.41R
KENANSVILLE    CLOUDY    61  61 100 CALM      30.39R FOG
KINSTON        CLOUDY    61  57  88 NW5       30.40R FOG
NEW BERN       CLOUDY    69  63  81 S7        30.40R
RICHLANDS      CLOUDY    70  65  84 S9        30.39R
ROCKY MOUNT    CLOUDY    52  50  93 CALM      30.40R FOG
WASHINGTON     CLOUDY    64  59  83 CALM      30.39S
WHITEVILLE     CLOUDY    64  63  97 CALM      30.37S FOG

$$

AMZ130-135-150-152-154-156-158-170-250-252-270-ANZ085-086-088-633-658-670-200000-
MARINE OBSERVATIONS

STATION/POSITION TIME  TEMP    WIND        PRES    WAVE   SWELL
                       AIR SEA DIR/SP/G            HT/PER HT/PER
                 (UTC) (F)     (DEG/KT/KT) (MB)    (FT/S) (FT/S)
CHESAPEAKE LIGHT NOT AVBL
64 E VA BEACH    2250   55 50  170/ 10/ 12 1030.3    3/ 8   2/ 8
DUCK             2300   63 44  180/ 15/ 16 1028.8
2 E DUCK         2300      45                N/A     3/ 5
OREGON INLET     2300   59 47  160/  7/  9 1029.9
13E OREGON INLT  2248      45                N/A     4/ 6   3/ 6
HATTERAS CG      2300   63 56  160/  7/  9 1029.8
DIAMOND BUOY     2310   71 71  160/ 16/ 19 1030.6
CAPE LOOKOUT     2300          180/  7/  8 1029.8
BEAUFORT LAB     2300   60 54  180/  5/  6 1029.6
30 SE NEW RVR IN 2208   70 67  170/ 10/ 14 1028.9
30 SE NEW RVR IN 2300      67                N/A     5/ 6
27 SE WRIGHTSVLE NOT AVBL
5 SE WRIGHTSVLE  2308   60 54  220/  4/ 10 1028.8
225 S CAPE HAT   2250   71 73  100/ 14/ 16 1029.8    4/ 9   3/ 9
41 SE CHARLESTON 2310   70 68  120/  4/  6 1027.7

$$




USA.gov is the U.S. government's official web portal to all federal, state and local government web resources and services.